Index of /drivers/Loncomip/
../
a2000.zip 06-May-2026 08:16 58170
abb_et.zip 06-May-2026 08:16 81615
abb_m1m.zip 06-May-2026 08:16 56862
ac_su.zip 06-May-2026 08:16 3003
ac_v2.zip 06-May-2026 08:16 59647
access4000x.zip 06-May-2026 08:16 63424
acintrudedc.zip 06-May-2026 08:16 1380
acm03u1.zip 06-May-2026 08:16 81408
acpowersaver_temperature.zip 06-May-2026 08:16 47696
acrel_aem.zip 06-May-2026 08:16 57801
acrel_pz.zip 06-May-2026 08:16 81423
acrelacr.zip 06-May-2026 08:16 56380
acrelamc.zip 06-May-2026 08:16 55179
acreldtsd1352.zip 06-May-2026 08:16 66157
acrelpz72l.zip 06-May-2026 08:16 54987
aeg_ms10m.zip 06-May-2026 08:16 58778
aeg_ms10se.zip 06-May-2026 08:16 58310
agc150.zip 06-May-2026 08:16 65322
ai_general_temp_humid.zip 06-May-2026 08:16 58735
ai_water2.zip 06-May-2026 08:16 56306
aigeneralshaper.zip 06-May-2026 08:16 71135
airsys.zip 06-May-2026 08:16 74159
akshuayibump.zip 06-May-2026 08:16 71090
akshuayibump2.zip 06-May-2026 08:16 70125
akshuayiliejianac.zip 06-May-2026 08:16 76278
am5set.zip 06-May-2026 08:16 61358
amc100.zip 23-Dec-2025 10:03 105904
amc16z_1dc.zip 06-May-2026 08:16 56345
amc16z_2ac.zip 06-May-2026 08:16 65384
amc16z_2dc.zip 06-May-2026 08:16 80810
amc72_96.zip 06-May-2026 08:16 62156
amf20.zip 06-May-2026 08:16 80141
amf25.zip 06-May-2026 08:16 65001
arcm200l.zip 06-May-2026 08:16 48167
ascb1.zip 06-May-2026 08:16 57487
ascoc600.zip 06-May-2026 08:16 61513
babangmeter.zip 06-May-2026 08:16 55752
bat61cj.zip 06-May-2026 08:16 59479
battery24_voltage.zip 06-May-2026 08:16 1846
battery2v_32.zip 06-May-2026 08:16 181034
battery_24.zip 06-May-2026 08:16 3810
battery_32.zip 06-May-2026 08:16 181153
batterycurrent4_20_n100_100.zip 06-May-2026 08:16 53449
batteryvoltage4_20.zip 06-May-2026 08:16 52624
bepmw2800.zip 06-May-2026 08:16 55256
bmu24.zip 06-May-2026 08:16 2312
bt_48dc.zip 06-May-2026 08:16 61581
bt_s80_a3_cbah01_b14.zip 06-May-2026 08:16 74622
bt_venv.zip 06-May-2026 08:16 76921
btbacnetleng.zip 06-May-2026 08:16 69570
btbacnetleng1.zip 06-May-2026 08:16 66213
btbacnetleng170.zip 06-May-2026 08:16 72112
btbacnetleng171_172.zip 06-May-2026 08:16 59567
btbacnetleng173_174_175.zip 06-May-2026 08:16 60011
btbacnetleng176_177.zip 06-May-2026 08:16 59931
btbat2000.zip 06-May-2026 08:16 77279
btbat2000_2.zip 07-Apr-2026 08:34 76574
btfengjidi.zip 06-May-2026 08:16 64467
bthengshiji.zip 27-Jun-2024 02:55 54087
bwdk326.zip 06-May-2026 08:16 62486
bzcdoorsensor.zip 06-May-2026 08:16 60514
c2000_a2_sdxa000_ax1.zip 06-May-2026 08:16 62816
camera.zip 06-May-2026 08:16 4151
canatal.zip 06-May-2026 08:16 69968
canatal_ms1554.zip 06-May-2026 08:16 67640
cavt.zip 06-May-2026 08:16 77493
cdq1s.zip 06-May-2026 08:16 67712
championups.zip 06-May-2026 08:16 172148
changjiyuncang.zip 06-May-2026 08:16 71587
changjiyuncang20.zip 06-May-2026 08:16 72393
climavenetaac.zip 06-May-2026 08:16 58202
cm02n600a0.zip 06-May-2026 08:16 72990
cmplus.zip 06-May-2026 08:16 66399
cms200.zip 06-May-2026 08:16 110120
cphp2200.zip 06-May-2026 08:16 1887
cpm1350.zip 06-May-2026 08:16 63972
cpm3310.zip 06-May-2026 08:16 56885
cscp.zip 06-May-2026 08:16 219434
cscp_419.zip 06-May-2026 08:16 105675
ctdg_ac.zip 06-May-2026 08:16 59084
cuc01h.zip 06-May-2026 08:16 85352
cuc01hc.zip 06-May-2026 08:16 236294
cuc01hc_419.zip 06-May-2026 08:16 101114
cuc0609h.zip 06-May-2026 08:16 240060
cuc0609h_419.zip 06-May-2026 08:16 103392
cuc2000hi.zip 06-May-2026 08:16 70830
cuc21vb.zip 06-May-2026 08:16 159797
cws19_temperature_sp2.zip 06-May-2026 08:16 41037
cybermateevo.zip 06-May-2026 08:16 57543
cypd10a.zip 06-May-2026 08:16 58531
daneng6000.zip 06-May-2026 08:16 56774
datamate3000.zip 06-May-2026 08:16 71859
db4610.zip 06-May-2026 08:16 67140
dc4xdmk3.zip 06-May-2026 08:16 71266
dc5x.zip 02-Dec-2025 10:04 73149
dcm3366.zip 06-May-2026 08:16 59613
dcm3366d_w1.zip 06-May-2026 08:16 54988
dcm3366m_12_w1.zip 06-May-2026 08:16 56890
dcm3366ph241s.zip 06-May-2026 08:16 57952
dcm3366q.zip 06-May-2026 08:16 54208
dds3366m_w1.zip 06-May-2026 08:16 55224
debil64dido.zip 06-May-2026 08:16 42781
deif_h2.zip 06-May-2026 08:16 75583
delta_240_rc.zip 06-May-2026 08:16 72915
delta_adc380_200.zip 06-May-2026 08:16 88450
delta_dps_h.zip 06-May-2026 08:16 58201
deltahav36a.zip 06-May-2026 08:16 2591
deltahift.zip 06-May-2026 08:16 58819
deltanhnt.zip 06-May-2026 08:16 92646
deltant.zip 06-May-2026 08:16 2537
dfpm93.zip 15-Mar-2025 09:38 77002
diris_a40.zip 06-May-2026 08:16 57707
djddsd.zip 06-May-2026 08:16 59027
dk04.zip 06-May-2026 08:16 6797
dk04c.zip 06-May-2026 08:16 6216
dk09.zip 06-May-2026 08:16 70112
dkd46.zip 06-May-2026 08:16 83231
dkd46_419.zip 06-May-2026 08:16 112042
dm2300.zip 06-May-2026 08:16 58414
doctrl.zip 06-May-2026 08:16 55639
door_ms899_v5.zip 06-May-2026 08:16 60155
doorsensor.zip 06-May-2026 08:16 57089
doorxjl.zip 06-May-2026 08:16 2217
doorxjlb.zip 15-Sep-2025 09:14 147546
dpm8600.zip 06-May-2026 08:16 54585
dpu_dkln.zip 06-May-2026 08:16 56579
dse5210.zip 06-May-2026 08:16 74432
dse7310.zip 06-May-2026 08:16 68460
dse7310b.zip 06-May-2026 08:16 66445
dts100.zip 06-May-2026 08:16 61533
dts541.zip 06-May-2026 08:16 61296
dts541s.zip 06-May-2026 08:16 59149
dtsd3366d.zip 06-May-2026 08:16 72896
dtsd3366m4.zip 06-May-2026 08:16 81330
dtsd3366p4.zip 06-May-2026 08:16 61467
dv11_r2.zip 06-May-2026 08:16 55786
ea86.zip 06-May-2026 08:16 2236
eagle600.zip 06-May-2026 08:16 57141
eajk070swzl.zip 06-May-2026 08:16 40639
eatonups9390.zip 06-May-2026 08:16 4901
ecm2000.zip 06-May-2026 08:16 71708
em300.zip 06-May-2026 08:16 55646
em400.zip 06-May-2026 08:16 60401
engine6.zip 06-May-2026 08:16 155285
epm600k.zip 06-May-2026 08:16 103404
et903.zip 06-May-2026 08:16 76703
et903e.zip 06-May-2026 08:16 63555
evocybermatedx.zip 06-May-2026 08:16 77113
evocybermatedxmodbus.zip 06-May-2026 08:16 68316
evou4xrowcw.zip 06-May-2026 08:16 79925
evou4xrowdx.zip 06-May-2026 08:16 103789
ex8_33.zip 06-May-2026 08:16 57843
fansensor.zip 06-May-2026 08:16 40751
fc102.zip 06-May-2026 08:16 58750
fengji1.zip 06-May-2026 08:16 68204
fengji2.zip 06-May-2026 08:16 63799
fkdpc100ej.zip 06-May-2026 08:16 53977
fourseaats.zip 06-May-2026 08:16 2114
fresh_air.zip 06-May-2026 08:16 63698
ganshi_temperature.zip 06-May-2026 08:16 55824
gassensor.zip 06-May-2026 08:16 57640
geats.zip 06-May-2026 08:16 56587
general_temp_humid.zip 06-May-2026 08:16 84035
general_temp_humidb.zip 06-May-2026 08:16 83280
glassbroken.zip 06-May-2026 08:16 53688
gm6650dc.zip 06-May-2026 08:16 73408
gree.zip 06-May-2026 08:16 59102
greebmsac.zip 06-May-2026 08:16 70897
greejkf20cnnab.zip 06-May-2026 08:16 72552
greestationac.zip 06-May-2026 08:16 73144
gstinet03.zip 06-May-2026 08:16 48668
gtr85.zip 06-May-2026 08:16 66118
gu320a.zip 06-May-2026 08:16 62233
gu631a.zip 06-May-2026 08:16 70546
h2sensor.zip 06-May-2026 08:16 55993
h3gta.zip 06-May-2026 08:16 61637
h3gtabatterybalancer160.zip 06-May-2026 08:16 79362
h3gtc.zip 06-May-2026 08:16 60647
haihong.zip 06-May-2026 08:16 67506
haiwu.zip 10-Jan-2025 09:42 95587
haiwucsaf.zip 13-Nov-2024 07:02 114329
hanguang4pac.zip 24-Jun-2025 01:24 57637
hanguang4pdc.zip 24-Jun-2025 01:23 55004
hat400.zip 06-May-2026 08:16 60471
hat500.zip 06-May-2026 08:16 61899
hat600.zip 06-May-2026 08:16 62396
hbzs96k.zip 06-May-2026 08:16 56690
hc33.zip 06-May-2026 08:16 59075
hcccs03.zip 06-May-2026 08:16 61645
hds_sbms.zip 06-May-2026 08:16 69644
hgc300.zip 06-May-2026 08:16 78038
hgm6100.zip 06-May-2026 08:16 65298
hgm9300.zip 06-May-2026 08:16 81195
hgm9420n.zip 06-May-2026 08:16 127712
hgxy_sps.zip 06-May-2026 08:16 78705
hgxy_sps_tower.zip 06-May-2026 08:16 63069
hipulseu.zip 06-May-2026 08:16 74573
hisense.zip 06-May-2026 08:16 72482
hisense_v3.zip 06-May-2026 08:16 62114
hisenses.zip 06-May-2026 08:16 68036
hiwave_ac.zip 06-May-2026 08:16 96889
hongyindz.zip 06-May-2026 08:16 55372
hr_rtu_jg.zip 06-May-2026 08:16 69332
huaweilibattery.zip 06-May-2026 08:16 62956
huayizfsltianjinlu.zip 06-May-2026 08:16 58660
humid.zip 06-May-2026 08:16 2173
humid2.zip 06-May-2026 08:16 53163
humid303mini.zip 06-May-2026 08:16 39160
humid_sp.zip 06-May-2026 08:16 55257
humid_sp2.zip 06-May-2026 08:16 56944
hvdc.zip 06-May-2026 08:16 83575
hvdy.zip 06-May-2026 08:16 66654
hzjk01b.zip 06-May-2026 08:16 62152
icntmint.zip 06-May-2026 08:16 62992
igntc.zip 06-May-2026 08:16 141655
il4amf25.zip 06-May-2026 08:16 68196
il4mrs16.zip 06-May-2026 08:16 67602
infraredgrating.zip 06-May-2026 08:16 52751
infraredsensor.zip 06-May-2026 08:16 54256
innotemperature.zip 06-May-2026 08:16 54877
ita.zip 06-May-2026 08:16 73830
iteaq88005274.zip 06-May-2026 08:16 94102
iteaqcoolfree14.zip 06-May-2026 08:16 98406
iteaqcoolrow5000.zip 06-May-2026 08:16 66606
iteaqcoolsmart.zip 06-May-2026 08:16 78915
iteaqsbms.zip 15-Jan-2025 06:58 62697
iteaqups.zip 06-May-2026 08:16 91232
iteaqupsur.zip 06-May-2026 08:16 65645
jbatterybalancer.zip 06-May-2026 08:16 2452
jbatterybalancer160.zip 28-Mar-2025 09:06 56217
jbatterycontroller.zip 06-May-2026 08:16 3182
jbms.zip 06-May-2026 08:16 61294
jbms_d.zip 06-May-2026 08:16 57923
jbms_e.zip 06-May-2026 08:16 60705
jdrk_rssj_6h.zip 06-May-2026 08:16 61103
jgctemperature24.zip 06-May-2026 08:16 60789
jigui_bms.zip 06-May-2026 08:16 55328
jk070sw.zip 06-May-2026 08:16 2072
jpmc.zip 06-May-2026 08:16 85946
js_opcua_d4.zip 06-May-2026 08:16 30159
jxbs3001h2.zip 21-Aug-2024 15:55 52731
jxbs3001h2s.zip 11-Sep-2024 03:58 53514
jzl485.zip 06-May-2026 08:16 62740
jzlbtse.zip 06-May-2026 08:16 72068
jzlcharger.zip 06-May-2026 08:16 50258
jzlcharger2.zip 06-May-2026 08:16 49120
jzlcharger3.zip 06-May-2026 08:16 58077
jzlchargerfsbfbi.zip 06-May-2026 08:16 60849
jzldcdc.zip 06-May-2026 08:16 46624
jzlkd.zip 06-May-2026 08:16 54622
jzlmcc.zip 06-May-2026 08:16 56176
jzlvolcur.zip 14-Oct-2024 07:33 53671
k200.zip 06-May-2026 08:16 66584
kddsv22.zip 06-May-2026 08:16 148042
kelongmr33m.zip 06-May-2026 08:16 91485
kn10.zip 06-May-2026 08:16 82074
kstar_ups_megatec.zip 06-May-2026 08:16 79539
kstarmatrixair.zip 02-Dec-2024 08:44 76257
kstarups.zip 06-May-2026 08:16 121782
kstarupsbt.zip 06-May-2026 08:16 112416
liebert_pex.zip 06-May-2026 08:16 66700
liebert_ups.zip 06-May-2026 08:16 4037
lkwenshidu.zip 21-Aug-2024 15:55 52501
ltech_engine.zip 06-May-2026 08:16 56314
m500f.zip 06-May-2026 08:16 223358
m520s.zip 06-May-2026 08:16 239343
m522s.zip 06-May-2026 08:16 220406
m522s_419.zip 06-May-2026 08:16 107413
m810g.zip 06-May-2026 08:16 221114
m810g_419.zip 06-May-2026 08:16 111018
m816.zip 06-May-2026 08:16 63411
m822e.zip 06-May-2026 08:16 83958
ma01c.zip 06-May-2026 08:16 122414
ma01dh.zip 06-May-2026 08:16 61889
ma01dl.zip 21-Oct-2024 05:37 73870
mainverter.zip 06-May-2026 08:16 1582
mapowermeter.zip 06-May-2026 08:16 47551
mars16.zip 06-May-2026 08:16 65306
mb5000l.zip 06-May-2026 08:16 64896
mc2600.zip 06-May-2026 08:16 64511
mcgs.zip 06-May-2026 08:16 68264
mcgs_1aa1.zip 06-May-2026 08:16 61665
mcgs_1au1.zip 06-May-2026 08:16 2814
mcgs_3au1.zip 06-May-2026 08:16 55068
mcgs_3au3.zip 06-May-2026 08:16 59541
mcs1800.zip 06-May-2026 08:16 216240
mcs1800a.zip 06-May-2026 08:16 235495
mcs6000.zip 06-May-2026 08:16 7110
mcs_fc3.zip 06-May-2026 08:16 76987
mdq_stb1_125.zip 06-May-2026 08:16 57540
mdtx_sc100e.zip 06-May-2026 08:16 69635
mdtx_sc100e_4.zip 06-May-2026 08:16 67582
mec048_h42c0.zip 06-May-2026 08:16 91178
mec10.zip 06-May-2026 08:16 1536
mec2x.zip 06-May-2026 08:16 72730
media_ac.zip 06-May-2026 08:16 69226
media_dcm.zip 06-May-2026 08:16 66908
mediamav.zip 06-May-2026 08:16 81442
mediamavb.zip 06-May-2026 08:16 77881
mediasaf.zip 06-May-2026 08:16 60981
met05_ac8.zip 06-May-2026 08:16 60162
meterdm2300n.zip 06-May-2026 08:16 55553
mindsecdps4d08.zip 06-May-2026 08:16 68650
modbus_bd330.zip 06-May-2026 08:16 48643
modbus_db600.zip 06-May-2026 08:16 49490
modbus_epower.zip 06-May-2026 08:16 50800
modbus_hisense.zip 06-May-2026 08:16 55472
modbus_md500.zip 06-May-2026 08:16 50322
modbus_vertiv_ac.zip 06-May-2026 08:16 65730
motor_battery.zip 06-May-2026 08:16 53677
motor_battery12.zip 06-May-2026 08:16 52229
mrs16l4.zip 06-May-2026 08:16 74877
ms10.zip 06-May-2026 08:16 62705
ms10fg.zip 06-May-2026 08:16 79496
ms19mb.zip 06-May-2026 08:16 68131
ms20.zip 06-May-2026 08:16 166401
mt_ghj.zip 06-May-2026 08:16 56453
multiinstrument.zip 06-May-2026 08:16 56164
multism18.zip 06-May-2026 08:16 57866
nb_temperature.zip 06-May-2026 08:16 2704
ndq5.zip 06-May-2026 08:16 56915
nes96xx.zip 06-May-2026 08:16 60850
nlk8do.zip 06-May-2026 08:16 41369
np9801.zip 06-May-2026 08:16 97108
ntc_temperature.zip 06-May-2026 08:16 46487
nxr.zip 06-May-2026 08:16 68936
p127.zip 06-May-2026 08:16 57400
p4gs0207cm.zip 06-May-2026 08:16 77271
pa194i.zip 06-May-2026 08:16 56535
pa194u.zip 06-May-2026 08:16 1309
pa2000.zip 06-May-2026 08:16 58848
pcc2110.zip 06-May-2026 08:16 65650
pd1688z.zip 06-May-2026 08:16 57976
pd194e.zip 06-May-2026 08:16 57819
pd194ui.zip 06-May-2026 08:16 56679
pd195ze31.zip 06-May-2026 08:16 56636
pd510.zip 06-May-2026 08:16 58337
pd606.zip 06-May-2026 08:16 64884
pdu8000.zip 06-May-2026 08:16 98999
pex3dx.zip 06-May-2026 08:16 73569
pex4s.zip 06-May-2026 08:16 107091
pexap.zip 06-May-2026 08:16 75653
pilotspm206.zip 06-May-2026 08:16 59291
pm25.zip 06-May-2026 08:16 47408
pm25v2.zip 06-May-2026 08:16 54935
pm4s.zip 06-May-2026 08:16 71441
pm5350.zip 06-May-2026 08:16 57798
pm550.zip 06-May-2026 08:16 55449
pmac203.zip 06-May-2026 08:16 71015
pmac600_a.zip 06-May-2026 08:16 55227
pmac600_b.zip 06-May-2026 08:16 55660
pmac625.zip 06-May-2026 08:16 75546
pmac720.zip 06-Jan-2026 10:49 83031
pmac910.zip 06-May-2026 08:16 55681
pmacs963e.zip 06-May-2026 08:16 55762
pmc33x.zip 06-May-2026 08:16 76095
pmc630s.zip 06-May-2026 08:16 58121
pmchmi.zip 06-May-2026 08:16 73737
pmchmi_dc.zip 06-May-2026 08:16 74029
pmf632b.zip 06-May-2026 08:16 61702
pmf720y.zip 06-May-2026 08:16 64581
pmf910l.zip 06-May-2026 08:16 69362
pmhiwave.zip 06-May-2026 08:16 74631
pmtowerdoor.zip 06-May-2026 08:16 60678
pmu400.zip 06-May-2026 08:16 57598
pmu500.zip 06-May-2026 08:16 57896
pmw2800.zip 06-May-2026 08:16 77756
power_302a.zip 06-May-2026 08:16 64058
powercommand33.zip 06-May-2026 08:16 65420
powermeter_leak.zip 06-May-2026 08:16 46321
powerwizard.zip 06-May-2026 08:16 64930
prsh2.zip 06-May-2026 08:16 53856
psm15a.zip 06-May-2026 08:16 225130
psm15a_419.zip 06-May-2026 08:16 104860
psma.zip 06-May-2026 08:16 226052
psma9.zip 06-May-2026 08:16 225843
psma_419.zip 06-May-2026 08:16 106332
pstcn980.zip 06-May-2026 08:16 58041
qb2000n.zip 03-Apr-2025 08:30 53569
rpdu.zip 06-May-2026 08:16 67404
rssjdwn01r01.zip 06-May-2026 08:16 66540
rswsn01_humid_sp2.zip 06-May-2026 08:16 41025
rswsn01_temperature_sp2.zip 06-May-2026 08:16 41114
ruipu_ups.zip 06-May-2026 08:16 65793
sac3000.zip 06-May-2026 08:16 64420
sca.zip 06-May-2026 08:16 69629
scd.zip 21-Aug-2024 15:55 54787
schneidercompactnsx.zip 06-May-2026 08:16 56456
schneiderdm2300.zip 06-May-2026 08:16 55816
schneiderdm2365st.zip 06-May-2026 08:16 56568
scu.zip 06-May-2026 08:16 70474
scwchiller.zip 06-May-2026 08:16 77846
sdc.zip 06-May-2026 08:16 81646
sdhdbdm.zip 06-May-2026 08:16 58327
sdhdbmu.zip 06-May-2026 08:16 53728
sg2022.zip 06-May-2026 08:16 57055
sgc420.zip 06-May-2026 08:16 78164
sgc420mkii.zip 09-Jan-2025 01:47 79375
shendian.zip 06-May-2026 08:16 56650
sicam_p35.zip 06-May-2026 08:16 68205
sicamp37.zip 06-May-2026 08:16 77539
skmki.zip 06-May-2026 08:16 225977
sl1882s_mz3_5_1.zip 06-May-2026 08:16 72991
sl1882s_mz3_5_2.zip 06-May-2026 08:16 74735
sl3500th3ct.zip 06-May-2026 08:16 64976
sl3500th3ct2.zip 06-May-2026 08:16 89108
sl6100th3ct.zip 06-May-2026 08:16 79086
sl6200th1ct2.zip 06-May-2026 08:16 180870
sl6200th1ct2v215.zip 06-May-2026 08:16 201135
sm3600b20.zip 06-May-2026 08:16 59874
smartli3.zip 06-May-2026 08:16 76826
smoke.zip 06-May-2026 08:16 394
smoke2.zip 06-May-2026 08:16 55606
smpdu.zip 06-May-2026 08:16 58487
smu06c.zip 06-May-2026 08:16 253424
smu06c_419.zip 06-May-2026 08:16 111922
snp1313.zip 06-May-2026 08:16 56758
socketagc150.zip 06-May-2026 08:16 75835
spc.zip 06-May-2026 08:16 58828
spm322020modbus.zip 21-Aug-2024 15:55 52330
spm33.zip 06-May-2026 08:16 64497
st6_20k.zip 06-May-2026 08:16 81465
suacfanbalancer.zip 06-May-2026 08:16 54744
subattery.zip 06-May-2026 08:16 59780
sunrise_eda.zip 06-May-2026 08:16 75782
sutemperature3.zip 06-May-2026 08:16 53921
taac.zip 06-May-2026 08:16 56897
tbea_powermeter1.zip 06-May-2026 08:16 56059
tbea_powermeter2.zip 06-May-2026 08:16 55110
tc20.zip 06-May-2026 08:16 80376
tclstationac.zip 06-May-2026 08:16 71788
tcmeter.zip 02-Dec-2024 09:34 1701
temperature.zip 06-May-2026 08:16 2760
temperature2.zip 06-May-2026 08:16 53427
temperature3.zip 06-May-2026 08:16 53755
temperature303mini.zip 06-May-2026 08:16 1281
temperature_sp.zip 06-May-2026 08:16 55586
temperature_sp2.zip 06-May-2026 08:16 57647
temtransmitter.zip 06-May-2026 08:16 55838
threephasemeter.zip 06-May-2026 08:16 53772
thse10.zip 06-May-2026 08:16 55477
tlsd.zip 06-May-2026 08:16 218696
tm5530.zip 06-May-2026 08:16 62905
tmcontroller.zip 06-May-2026 08:16 57935
tmcontroller20250701.zip 06-May-2026 08:16 97051
tmqth2.zip 06-May-2026 08:16 57743
tpc_7062.zip 06-May-2026 08:16 57577
ug20.zip 06-May-2026 08:16 3646
ug30.zip 06-May-2026 08:16 4018
ug40.zip 06-May-2026 08:16 72325
uh11.zip 06-May-2026 08:16 65694
ul33.zip 06-May-2026 08:16 85840
unicom_ac.zip 06-May-2026 08:16 55417
unicom_ac2.zip 06-May-2026 08:16 59886
unicom_acrpz96.zip 06-May-2026 08:16 49001
unicom_coolfree.zip 06-May-2026 08:16 78026
unicom_coolmaster3k.zip 06-May-2026 08:16 68438
unicom_dps6000.zip 06-May-2026 08:16 121182
unicom_engine.zip 06-May-2026 08:16 70686
unicom_h3gbatterybalancer160.zip 06-May-2026 08:16 62749
unicom_hmi2796s.zip 06-May-2026 08:16 56475
unicom_iplu_2801bm.zip 06-May-2026 08:16 61648
unicom_irmsensor.zip 06-May-2026 08:16 57020
unicom_ll11.zip 06-May-2026 08:16 76093
unicom_ll13.zip 06-May-2026 08:16 75467
unicom_nhbaccontroller.zip 06-May-2026 08:16 66129
unicom_p14.zip 06-May-2026 08:16 57433
unicom_pdu8000.zip 06-May-2026 08:16 60479
unicom_powermetertype1.zip 06-May-2026 08:16 58290
unicom_rc.zip 06-May-2026 08:16 56337
unicom_spm33.zip 06-May-2026 08:16 58470
unicom_ups.zip 06-May-2026 08:16 72488
unicom_ups5000.zip 06-May-2026 08:16 113735
unicom_yd2018.zip 06-May-2026 08:16 63944
unicom_yd6600.zip 06-May-2026 08:16 66157
unicom_yd8771y.zip 06-May-2026 08:16 56784
unicom_yd8771y1.zip 06-May-2026 08:16 55760
unicom_yd8771yb.zip 06-May-2026 08:16 55745
unicom_ydet903e.zip 06-May-2026 08:16 46657
unicom_yn194e2s4.zip 06-May-2026 08:16 48861
unicompowermeter.zip 06-May-2026 08:16 55302
unicomzytmeter.zip 06-May-2026 08:16 62005
ups2000.zip 06-May-2026 08:16 79521
ups5000.zip 06-May-2026 08:16 144329
ups_3u_hq_m.zip 06-May-2026 08:16 80312
ups_eu_hq_m.zip 06-May-2026 08:16 74710
upsbattery650_voltage.zip 06-May-2026 08:16 53795
upsbattery750_voltage.zip 06-May-2026 08:16 53813
upsbattery_20.zip 06-May-2026 08:16 182686
upsbattery_29.zip 06-May-2026 08:16 182654
upsbattery_30.zip 06-May-2026 08:16 182548
upskstar.zip 06-May-2026 08:16 56792
vca.zip 06-May-2026 08:16 56500
vtumodel.zip 06-May-2026 08:16 1820
vtumodelyunbase.zip 06-May-2026 08:16 76378
water.zip 06-May-2026 08:16 394
water2.zip 06-May-2026 08:16 57016
wkcontroller.zip 06-May-2026 08:16 68693
wotpclevel3.zip 06-May-2026 08:16 59948
wrwf120106ups.zip 06-May-2026 08:16 5543
wrwf_kr1110.zip 06-May-2026 08:16 84144
xdfreshair.zip 06-May-2026 08:16 58742
xdfreshair2.zip 06-May-2026 08:16 55302
xdfreshaircool.zip 06-May-2026 08:16 72517
xfc500.zip 06-May-2026 08:16 58490
xhbpqax.zip 06-May-2026 08:16 57330
xiangjiangxiaomuxian.zip 06-May-2026 08:16 101656
xinruidabat23.zip 14-Oct-2024 09:43 54107
xjbabushui.zip 06-May-2026 08:16 58412
xjbadianbiaotongxun.zip 06-May-2026 08:16 56916
xjbaerdanyuan.zip 06-May-2026 08:16 70463
xjbahuanguan.zip 06-May-2026 08:16 62402
xjbahuanjing.zip 06-May-2026 08:16 55073
xjbalengjitongxun.zip 06-May-2026 08:16 57850
xjbalengquetatongxue.zip 06-May-2026 08:16 54941
xjbalengquetatongxun.zip 06-May-2026 08:16 57553
xjbaliudanyuan.zip 06-May-2026 08:16 60712
xjbalouceng.zip 06-May-2026 08:16 92183
xjbamoduanzongguan.zip 06-May-2026 08:16 61521
xjbasandanyuan.zip 06-May-2026 08:16 63626
xjbashuichulishebeitongxun.zip 06-May-2026 08:16 62032
xjbasidanyuan.zip 06-May-2026 08:16 60559
xjbawudanyuan.zip 06-May-2026 08:16 67529
xjbaxulengguan.zip 06-May-2026 08:16 60191
xjbaxulengguantongxun.zip 06-May-2026 08:16 53783
xjbayidanyuan.zip 06-May-2026 08:16 70651
xjchangjiliejian.zip 06-May-2026 08:16 67033
xjdh_kl.zip 06-May-2026 08:16 81715
xjdh_m.zip 06-May-2026 08:16 73297
xjdxba500.zip 06-May-2026 08:16 51286
xjdxba510.zip 06-May-2026 08:16 58999
xjdxba511.zip 06-May-2026 08:16 60978
xjdxba512.zip 06-May-2026 08:16 60794
xjdxba513.zip 06-May-2026 08:16 60621
xjdxba514.zip 06-May-2026 08:16 60938
xjdxba515.zip 06-May-2026 08:16 61502
xjdxba516.zip 06-May-2026 08:16 63186
xjdxba517.zip 06-May-2026 08:16 60769
xjdxba518.zip 06-May-2026 08:16 60005
xjdxba519.zip 06-May-2026 08:16 69928
xjdxba525.zip 06-May-2026 08:16 60629
xjdxba526.zip 06-May-2026 08:16 60616
xjdxba527.zip 06-May-2026 08:16 60593
xjdxba528.zip 06-May-2026 08:16 60633
xjdxba529.zip 06-May-2026 08:16 61538
xjdxba530.zip 06-May-2026 08:16 60636
xjdxba531.zip 06-May-2026 08:16 58701
xjdxba532.zip 06-May-2026 08:16 59056
xjdxba533.zip 06-May-2026 08:16 60057
xjdxba534.zip 06-May-2026 08:16 59682
xjdxba535.zip 06-May-2026 08:16 66149
xjdxba536.zip 06-May-2026 08:16 69260
xjdxba537.zip 06-May-2026 08:16 60686
xjdxba538.zip 06-May-2026 08:16 61220
xjunicompowermeter.zip 06-May-2026 08:16 55220
xwpc3.zip 06-May-2026 08:16 55489
yananac.zip 06-May-2026 08:16 55269
yananbattery.zip 06-May-2026 08:16 71253
yd2037yr.zip 06-May-2026 08:16 48212
yd2037ys.zip 06-May-2026 08:16 62380
yd2200.zip 06-May-2026 08:16 80947
yd_dems_bd2_rht.zip 06-May-2026 08:16 82771
yd_dems_vd2.zip 06-May-2026 08:16 63371
yf8015.zip 06-May-2026 08:16 152151
yinjia.zip 06-May-2026 08:16 59874
yz900.zip 06-May-2026 08:16 60127
zhm15m.zip 06-May-2026 08:16 58352
zhm19m.zip 06-May-2026 08:16 75961
zhongtian_419.zip 06-May-2026 08:16 100743
zmdoc.zip 06-May-2026 08:16 56619
znv_access4000.zip 06-May-2026 08:16 45839
znv_datamate3000.zip 06-May-2026 08:16 59385
znv_humid.zip 06-May-2026 08:16 52671
znv_rua050cxt1l3.zip 06-May-2026 08:16 45878
znv_temperature.zip 06-May-2026 08:16 52856
znvbm41.zip 06-May-2026 08:16 65729
znvbm41_48.zip 06-May-2026 08:16 64657
znvbm41_ups.zip 06-May-2026 08:16 62042
znvdtms10.zip 06-May-2026 08:16 60510
znvh3ga0.zip 06-May-2026 08:16 63972
znvh3ga0_48.zip 06-May-2026 08:16 62576
zt310d_419.zip 06-May-2026 08:16 99216
zxdcmeter.zip 06-May-2026 08:16 60013
zxdu300_500.zip 06-May-2026 08:16 219768
zxdu300_500_419.zip 06-May-2026 08:16 106996
zxdu68_419.zip 06-May-2026 08:16 104480
zxdu68_t601v41_419.zip 06-May-2026 08:16 105202
zxdu68_t601v50_419.zip 06-May-2026 08:16 102202
zxm10_dth.zip 06-May-2026 08:16 60892
zxm10_dth_b.zip 06-May-2026 08:16 60644
zxmeter18.zip 06-May-2026 08:16 54284
zxpowermeter4.zip 06-May-2026 08:16 55427
zxpowermeter6.zip 06-May-2026 08:16 55346